Rbgn^[z[y[W
メイン
   新天体発見情報
     Comet C/2022 S4 (Lemmon)
投稿するにはまず登録を

フラット表示 前のトピック | 次のトピック
投稿者 スレッド
佐藤裕久
投稿日時: 2022-11-3 21:42
モデレータ
登録日: 2005-6-12
居住地: 日本
投稿: 2697
オンライン
Comet C/2022 S4 (Lemmon)

Comet C/2022 S4 (Lemmon)

9月19日UT、Mt Lemmonの1.5-m 反射望遠鏡で得たCCD画像から小惑星状天体が発見された。
小惑星センターのPCCP webpageに公表後、R. Weryk (西オンタリオ大学,物理および天文学科
)によると、9月22.5日UT、HaleakalaにあるPan-STARRS2の1.8-m Ritchey-Chretien 反射望遠
鏡で得た4枚の45秒w-バンドサーベイ画像ては、1".2のシーイングで、1".5(半値全幅:FWHM)
の集光したコマが見えるが、尾はない。Werykは、後に発見前の8月26.5日に得たPan-STARRS2
の露出では、1".2のシーイングで、1".7 (FWHM)の集光した21等のコマが見えるが、やはり尾
はない。佐藤英貴氏 (東京都文京区)は、9月24.45-24.46日UT、0.43-m f/6.8 アストログラフ 
(Mayhill近郊, ニューメキシコ州, 米国, 遠隔操作)による120-秒露出10枚のスタックでは、
恒星状にしか見えず、5".7の円形範囲で測定した光度は20.3等であった。
 L. Buzzi (Varese, イタリア, 10月4.1日, 60-秒露出80枚のスタック,  0.84-m f/3.5 反射
望遠鏡, 測定はBuzziとA. Aletti: 恒星状だが北東/南西方向にわずかに非対称にみえる)や
M. Jaegerによると、10月17日、オーストリアのOedで、0.41-m f/3.2 反射望遠鏡で得た100-秒
露出27枚の画像では、全光度19.9等、10"のコマが見えた。
彼はこの画像を"ICQ Comet Observations" Facebookページに掲載した。

彗星機能の報告は次のとおり、

OC   Date        Reporter           Coma    Tail    PA          Exposures
F52  2022-09-22  R. Weryk           0".4                        4x45s
G00  2022-10-17  M. Jaeger         10"                         27x100s

発見位置は次のとおり、

     2022 UT             R.A. (2000) Decl.       Mag.
     Sept.19.48802    2 52 09.09   +29 53 44.2   20.6
          19.49273    2 52 08.99   +29 53 42.8   20.5
          19.49744    2 52 08.87   +29 53 42.5   20.5
          19.50215    2 52 08.77   +29 53 41.3   20.3

MPCの双曲線軌道要素、位置推算表は次のとおり、

Orbital elements:
    C/2022 S4 (Lemmon)                                                          
Epoch 2022 Aug. 9.0 TT = JDT 2459800.5                                          
T 2024 July 17.59327 TT                                 Rudenko                 
q   2.7668583            (2000.0)            P               Q                  
z  -0.0007698      Peri.  268.30066     +0.14630257     -0.76034540             
 +/-0.0007674      Node   220.15084     +0.27329722     -0.58374653             
e   1.0021298      Incl.  101.05942     -0.95073876     -0.28480672             
From 85 observations 2022 Aug. 26-Oct. 21, mean residual 0".3.                  
                                                                                
Ephemeris:
Date    TT    R. A. (2000) Decl.     Delta      r    Elong.  Phase   m1
2022 09 22    02 51 04.1 +29 45 10   6.0359  6.7048   128.3     6.7  20.2
...
2022 10 07    02 43 10.4 +28 41 43   5.7588  6.5965   144.3     5.1  20.0
...
2022 10 15    02 38 06.7 +27 58 57   5.6353  6.5386   152.8     4.0  19.9
...
2022 10 21    02 34 01.4 +27 22 49   5.5555  6.4951   159.0     3.1  19.8
2022 10 22    02 33 19.4 +27 16 28   5.5434  6.4879   160.0     3.0  19.8
2022 10 23    02 32 37.1 +27 10 01   5.5316  6.4806   161.0     2.9  19.8
...
2022 10 29    02 28 18.7 +26 29 31   5.4678  6.4371   166.2     2.1  19.8
...
2022 11 06    02 22 28.3 +25 31 03   5.4026  6.3790   169.2     1.7  19.7
...
2022 11 21    02 11 49.9 +23 31 30   5.3418  6.2700   158.2     3.4  19.6

(MPEC 2022-U170、CBET 5181)

フラット表示 前のトピック | 次のトピック

題名 投稿者 日時
 » Comet C/2022 S4 (Lemmon) 佐藤裕久 2022-11-3 21:42

投稿するにはまず登録を
 
© 1999 Tsutomu Seki.